Crane Lake, MN

4:33 AM CST on January 24, 2018 (GMT -0600)
Crane Lake

Weather History for KCDD - June, 2013

Change the Weather History Date:

Thursday, June 27, 2013

  Actual Average Record
Temperature  
Mean Temperature 66 °F -  
Max Temperature 80 °F 73 °F 87 °F (2001)
Min Temperature 51 °F 51 °F 37 °F (2017)
Growing Degree Days 16 (Base 50)    
Moisture  
Dew Point 61 °F    
Average Humidity 82    
Maximum Humidity 100    
Minimum Humidity 42    
Precipitation  
Precipitation 0.04 in - - ()
Sea Level Pressure  
Sea Level Pressure 29.73 in    
Wind  
Wind Speed 2 mph (WNW)    
Max Wind Speed 12 mph    
Max Gust Speed 24 mph    
Visibility 9 miles    
Events Rain , Thunderstorm    
Averages and records for this station are not official NWS values.
T = Trace of Precipitation, MM = Missing Value Source: NWS Daily Summary

Daily Weather History Graph

Daily Weather History Graph

Search for Another Location

Airport or City:

Trip Planner

Search our weather history database for the weather conditions in past years. The results will help you decide how hot, cold, wet, or windy it might be!

Date:

Astronomy

Jun. 27, 2013 Rise Set
Actual Time 5:11 AM CDT 9:14 PM CDT
Civil Twilight 4:29 AM CDT 9:56 PM CDT
Nautical Twilight 3:31 AM CDT 10:54 PM CDT
Astronomical Twilight 1:47 AM CDT 12:36 AM CDT
Moon 11:43 PM CDT (6/27) 10:38 AM CDT (6/27)
Length of Visible Light 17h 26m
Length of Day
16h 03m
Waning Gibbous, 76% of the Moon is Illuminated
Jun 27
Waning Gibbous
Jun 29
Last Quarter
Jul 8
New
Jul 15
First Quarter
Jul 22
Full

Hourly Weather History & Observations

Time (CDT) Temp. Heat Index Dew Point Humidity Pressure Visibility Wind Dir Wind Speed Gust Speed Precip Events Conditions
12:12 AM 64.4 °F - 64.4 °F 100% 29.76 in 10.0 mi Calm Calm - N/A   Clear
12:32 AM 62.6 °F - 60.8 °F 94% 29.76 in 10.0 mi Calm Calm - N/A   Clear
12:52 AM 59.0 °F - 59.0 °F 100% 29.76 in 10.0 mi Calm Calm - N/A   Clear
1:12 AM 57.2 °F - 57.2 °F 100% 29.76 in 10.0 mi Calm Calm - N/A   Clear
1:32 AM 57.2 °F - 55.4 °F 94% 29.76 in 7.0 mi Calm Calm - N/A   Clear
1:52 AM 55.4 °F - 55.4 °F 100% 29.76 in 7.0 mi Calm Calm - N/A   Clear
2:12 AM 55.4 °F - 55.4 °F 100% 29.76 in 7.0 mi Calm Calm - N/A   Scattered Clouds
2:32 AM 59.0 °F - 57.2 °F 94% 29.76 in 10.0 mi Calm Calm - N/A   Scattered Clouds
2:52 AM 57.2 °F - 57.2 °F 100% 29.75 in 10.0 mi Calm Calm - N/A   Clear
3:12 AM 55.4 °F - 55.4 °F 100% 29.75 in 10.0 mi Calm Calm - N/A Thunderstorm Clear
3:32 AM 55.4 °F - 55.4 °F 100% 29.75 in 10.0 mi Calm Calm - N/A   Clear
3:52 AM 55.4 °F - 53.6 °F 94% 29.75 in 7.0 mi Calm Calm - N/A   Clear
4:12 AM 53.6 °F - 53.6 °F 100% 29.75 in 2.5 mi Calm Calm - N/A   Clear
4:32 AM 53.6 °F - 53.6 °F 100% 29.75 in 10.0 mi Calm Calm - N/A   Clear
4:52 AM 53.6 °F - 51.8 °F 94% 29.75 in 7.0 mi Calm Calm - N/A   Clear
5:12 AM 51.8 °F - 51.8 °F 100% 29.75 in 4.0 mi Calm Calm - N/A   Clear
5:32 AM 51.8 °F - 51.8 °F 100% 29.75 in 10.0 mi Calm Calm - N/A   Clear
5:52 AM 51.8 °F - 51.8 °F 100% 29.75 in 10.0 mi Calm Calm - N/A   Clear
6:12 AM 53.6 °F - 53.6 °F 100% 29.75 in 10.0 mi Calm Calm - N/A   Clear
6:32 AM 53.6 °F - 53.6 °F 100% 29.75 in 10.0 mi Calm Calm - N/A   Clear
6:52 AM 57.2 °F - 55.4 °F 94% 29.75 in 10.0 mi Calm Calm - N/A   Clear
7:12 AM 60.8 °F - 60.8 °F 100% 29.74 in 10.0 mi Calm Calm - N/A   Clear
7:32 AM 64.4 °F - 64.4 °F 100% 29.74 in 10.0 mi SSW 3.5 mph - N/A   Clear
7:52 AM 66.2 °F - 64.4 °F 94% 29.74 in 10.0 mi Calm Calm - N/A   Scattered Clouds
8:12 AM 68.0 °F - 66.2 °F 94% 29.74 in 10.0 mi SSW 5.8 mph - N/A   Mostly Cloudy
8:32 AM 68.0 °F - 66.2 °F 94% 29.73 in 10.0 mi Calm Calm - N/A   Scattered Clouds
8:52 AM 71.6 °F - 71.6 °F 100% 29.74 in 10.0 mi West 4.6 mph - N/A   Scattered Clouds
9:12 AM 71.6 °F - 71.6 °F 100% 29.73 in 10.0 mi West 3.5 mph - N/A   Mostly Cloudy
9:32 AM 73.4 °F - 73.4 °F 100% 29.73 in 10.0 mi WSW 3.5 mph - N/A   Scattered Clouds
9:52 AM 75.2 °F - 73.4 °F 94% 29.72 in 10.0 mi NW 3.5 mph - N/A   Scattered Clouds
10:12 AM 77.0 °F - 75.2 °F 94% 29.72 in 10.0 mi NW 3.5 mph - N/A   Clear
10:32 AM 78.8 °F - 77.0 °F 94% 29.72 in 10.0 mi West 3.5 mph - N/A   Clear
10:52 AM 78.8 °F - 73.4 °F 83% 29.72 in 10.0 mi SW 4.6 mph - N/A   Clear
11:12 AM 80.6 °F 85.4 °F 73.4 °F 79% 29.71 in 10.0 mi West 4.6 mph - N/A   Scattered Clouds
11:32 AM 78.8 °F - 75.2 °F 89% 29.71 in 10.0 mi NW 6.9 mph - N/A   Scattered Clouds
11:52 AM 80.6 °F 85.4 °F 73.4 °F 79% 29.71 in 10.0 mi West 6.9 mph 18.4 mph N/A   Clear
12:12 PM 80.6 °F 83.2 °F 68.0 °F 65% 29.71 in 10.0 mi West 6.9 mph - N/A   Scattered Clouds
12:32 PM 80.6 °F 83.9 °F 69.8 °F 70% 29.71 in 10.0 mi West 9.2 mph - N/A   Scattered Clouds
12:52 PM 77.0 °F - 62.6 °F 61% 29.72 in 10.0 mi NNW 4.6 mph - N/A Rain Light Rain
1:12 PM 77.0 °F - 64.4 °F 65% 29.71 in 10.0 mi WNW 8.1 mph 17.3 mph N/A   Scattered Clouds
1:32 PM 75.2 °F - 64.4 °F 69% 29.71 in 7.0 mi West 4.6 mph - N/A   Scattered Clouds
1:52 PM 78.8 °F - 64.4 °F 61% 29.71 in 10.0 mi West 6.9 mph - N/A   Clear
2:12 PM 80.6 °F 81.8 °F 62.6 °F 54% 29.71 in 10.0 mi West 6.9 mph - N/A   Scattered Clouds
2:32 PM 80.6 °F 81.5 °F 60.8 °F 51% 29.71 in 10.0 mi West 9.2 mph - N/A   Scattered Clouds
2:52 PM 78.8 °F - 62.6 °F 57% 29.71 in 10.0 mi NW 8.1 mph - N/A   Scattered Clouds
3:12 PM 80.6 °F 81.5 °F 60.8 °F 51% 29.71 in 10.0 mi West 8.1 mph - N/A   Scattered Clouds
3:32 PM 80.6 °F 80.8 °F 57.2 °F 45% 29.71 in 10.0 mi NW 10.4 mph 20.7 mph N/A   Scattered Clouds
3:52 PM 80.6 °F 81.5 °F 60.8 °F 51% 29.71 in 10.0 mi NW 10.4 mph 16.1 mph N/A   Scattered Clouds
4:12 PM 80.6 °F 80.8 °F 57.2 °F 45% 29.71 in 10.0 mi NW 9.2 mph 21.9 mph N/A   Scattered Clouds
4:32 PM 80.6 °F 80.5 °F 55.4 °F 42% 29.71 in 10.0 mi NNW 11.5 mph 24.2 mph N/A   Scattered Clouds
4:52 PM 78.8 °F - 57.2 °F 47% 29.71 in 10.0 mi NNW 5.8 mph 19.6 mph N/A   Mostly Cloudy
5:12 PM 78.8 °F - 55.4 °F 44% 29.72 in 10.0 mi NW 8.1 mph 20.7 mph N/A   Mostly Cloudy
5:32 PM 75.2 °F - 55.4 °F 50% 29.71 in 10.0 mi WNW 4.6 mph - N/A   Mostly Cloudy
5:52 PM 75.2 °F - 57.2 °F 53% 29.71 in 10.0 mi WNW 8.1 mph - N/A   Overcast
6:12 PM 77.0 °F - 57.2 °F 50% 29.71 in 10.0 mi West 6.9 mph - N/A   Overcast
6:32 PM 75.2 °F - 55.4 °F 50% 29.71 in 10.0 mi West 3.5 mph - N/A   Mostly Cloudy
6:52 PM 73.4 °F - 57.2 °F 57% 29.72 in 10.0 mi NNW 6.9 mph - N/A   Overcast
7:12 PM 69.8 °F - 57.2 °F 64% 29.73 in 4.0 mi NNW 6.9 mph 18.4 mph N/A Rain Light Rain
7:32 PM 66.2 °F - 59.0 °F 78% 29.74 in 10.0 mi North 4.6 mph - N/A   Mostly Cloudy
7:52 PM 64.4 °F - 60.8 °F 88% 29.73 in 10.0 mi NNW 3.5 mph - N/A Rain Rain
8:12 PM 64.4 °F - 60.8 °F 88% 29.73 in 10.0 mi Calm Calm - N/A   Overcast
8:32 PM 64.4 °F - 60.8 °F 88% 29.72 in 10.0 mi Calm Calm - N/A   Mostly Cloudy
8:52 PM 64.4 °F - 60.8 °F 88% 29.72 in 10.0 mi Calm Calm - N/A   Mostly Cloudy
9:12 PM 64.4 °F - 60.8 °F 88% 29.72 in 10.0 mi Calm Calm - N/A   Scattered Clouds
9:32 PM 64.4 °F - 60.8 °F 88% 29.72 in 10.0 mi Calm Calm - N/A   Scattered Clouds
9:52 PM 62.6 °F - 60.8 °F 94% 29.72 in 10.0 mi SW 5.8 mph - N/A Rain Rain
10:12 PM 62.6 °F - 60.8 °F 94% 29.72 in 10.0 mi West 4.6 mph - N/A   Scattered Clouds
10:32 PM 62.6 °F - 60.8 °F 94% 29.72 in 10.0 mi WSW 4.6 mph - N/A   Mostly Cloudy
10:52 PM 62.6 °F - 60.8 °F 94% 29.72 in 10.0 mi WSW 6.9 mph - N/A   Overcast
11:12 PM 62.6 °F - 60.8 °F 94% 29.72 in 2.5 mi NW 4.6 mph - 0.03 in Rain Heavy Rain
11:32 PM 60.8 °F - 59.0 °F 94% 29.72 in 4.0 mi Calm Calm - 0.04 in   Light Drizzle
11:52 PM 60.8 °F - 60.8 °F 100% 29.72 in 10.0 mi Calm Calm - 0.04 in   Overcast